Location: Laterina
(43.5167°N, 11.7167°E)
Time: 14:06:51
(UTC+00:00)

Cosmos 2026 Rocket - Pass Details

Date: 22 January 2021
Orbit: 940 x 1000 km, 82.9° (Epoch: 28 February)

Event Time Altitude Azimuth Distance (km) Brightness Sun altitude
Rises 05:02:57 0° 354° (N) 3,709 6.9 -17.2°
Reaches altitude 10° 05:05:30 10° 357° (N) 2,763 6.2 -16.8°
Maximum altitude 05:11:49 66° 80° (E) 1,088 4.5 -15.6°
Drops below altitude 10° 05:18:08 10° 162° (SSE) 2,762 6.8 -14.5°
Sets 05:20:41 0° 165° (SSE) 3,708 7.4 -14.1°
